Location: Bear Valley Community Church - Hurst
(32.8460°N, 97.1828°W)
Time: 12:54:18
(UTC+00:00)

Nadezhda 4 Rocket - Visible Passes

Search period start: 28 June 2022 00:00
Search period end: 08 July 2022 00:00
Orbit: 948 x 993 km, 82.9° (Epoch: 27 June)

Date Brightness Start Highest point End Pass type
(mag) Time Alt. Az. Time Alt. Az. Time Alt. Az.
02 Jul 6.9 10:32:32 10° ESE 10:34:52 12° E 10:37:12 10° ENE visible
03 Jul 6.4 10:53:36 10° SE 10:58:27 25° E 11:03:16 10° NE visible
06 Jul 6.5 10:21:08 10° SE 10:25:14 19° E 10:29:18 10° NE visible
07 Jul 5.6 10:43:22 10° SSE 10:48:53 36° E 10:54:23 10° NNE visible
